Other Public Products
Issued by NWS Grand Forks, ND

Home | Current Version | Previous Version | Text Only | Print | Product List | Glossary On
Versions: 1 2 3 4 5 6 7 8 9 10 11 12 13 14 15 16 17 18 19 20 21 22 23 24 25 26 27 28 29 30 31 32 33 34 35 36 37 38 39 40 41 42 43 44 45 46 47 48 49 50
000
FPUS83 KFGF 250031
OPUFGF
PRAIRIE TO PINES WEATHER ROUNDUP
NATIONAL WEATHER SERVICE EASTERN NORTH DAKOTA/GRAND FORKS ND
700 PM CDT THU APR 24 2014

 **SATELLITE DATA USED TO AUGMENT SKY COVER AT AUTOMATED STATIONS**
 *****  WEATHER ACROSS EASTERN NORTH DAKOTA  *****

CITY           SKY/WX    TMP DP  RH WIND       PRES   REMARKS
GRAND FORKS    CLOUDY    43  40  89 E6        29.71R
6HR MIN TEMP:  42; 6HR MAX TEMP:  45;

GRAND FORKS AF CLOUDY    43  43 100 E6        29.70S
GRAND CITY NWS   N/A     41 N/A N/A E5          N/A
BUXTON           N/A     44  44  98 E3          N/A
DEVILS LAKE    PTSUNNY   48  39  71 NE15      29.68R
6HR MIN TEMP:  45; 6HR MAX TEMP:  55;

FARGO          LGT RAIN  50  43  77 NE7       29.69R
6HR MIN TEMP:  43; 6HR MAX TEMP:  52; 6HR PCP: TRACE;

WAHPETON ARPT  CLOUDY    46  41  81 NW29G37   29.74R
$$

 *****  WEATHER ACROSS CENTRAL AND WESTERN NORTH DAKOTA  *****

CITY           SKY/WX    TMP DP  RH WIND       PRES   REMARKS
JAMESTOWN      MOSUNNY   53  34  48 N15G24    29.66R
6HR MIN TEMP:  53; 6HR MAX TEMP:  63; 6HR PCP: TRACE;

BISMARCK       SUNNY     61  25  25 NW14G25   29.70R
6HR MIN TEMP:  59; 6HR MAX TEMP:  65;

MINOT          MOSUNNY   56  33  42 N10       29.69R
6HR MIN TEMP:  50; 6HR MAX TEMP:  60; 6HR PCP: TRACE;

MINOT AFB      PTSUNNY   56  33  41 NW16      29.68R
6HR MIN TEMP:  53; 6HR MAX TEMP:  58; 6HR PCP: TRACE;

GARRISON         N/A     59  28  30 NW14      29.70R
6HR MIN TEMP:  55; 6HR MAX TEMP:  61;

WILLISTON      MOSUNNY   58  25  28 W8        29.70S
6HR MIN TEMP:  49; 6HR MAX TEMP:  61; 6HR PCP: TRACE;

DICKINSON      SUNNY     58  21  24 NW22      29.70S
6HR MIN TEMP:  55; 6HR MAX TEMP:  62;

HETTINGER      SUNNY     60  15  17 NW16      29.73S
6HR MIN TEMP:  56; 6HR MAX TEMP:  62;

$$

 *****  OTHER OBSERVATIONS NORTHEAST NORTH DAKOTA  *****

CITY           SKY/WX    TMP DP  RH WIND       PRES   REMARKS
WALHALLA       CLOUDY    41  41 100 E6        29.73S FOG
LANGDON        CLOUDY    43  41  93 E8        29.69F FOG
CAVALIER       FOG       39  39 100 E5        29.73S VSB 3/4
GRAFTON        CLOUDY    39  39 100 E12       29.71F FOG
CANDO          FAIR      48  41  76 NE10      29.69S
FORT TOTTEN      N/A     47  42  81 NE8       29.95S
ROLLA          FAIR      48  41  76 NW8       29.70R
RUGBY          FAIR      50  39  66 N6        29.69R
 ***** THE ABOVE OBSERVATIONS ARE NON NWS ARE NOT QUALITY
        CONTROLLED AND MAY MIS-REPORT RAIN FOR SNOW...
$$

 *****  OTHER OBSERVATIONS SOUTHEAST NORTH DAKOTA *****

CITY           SKY/WX    TMP DP  RH WIND       PRES   REMARKS
COOPERSTOWN    FAIR      46  46 100 E12       29.66R
VALLEY CITY    MOCLDY    50  36  57 NW16      29.66R
OAKES          FAIR      57  32  38 W10       29.66S
GWINNER        CLEAR     55  37  50 NE12      29.68R
SHEYENNE NWR     N/A     48  41  77 SE6       29.95
BUFFALO          N/A     51  36  56 N2          N/A
WYNDMERE       NOT AVBL
 ***** THE ABOVE OBSERVATIONS ARE NON NWS ARE NOT QUALITY
       CONTROLLED AND MAY MIS-REPORT RAIN FOR SNOW...
$$

  *****  WEATHER ACROSS NORTHERN MINNESOTA  *****

CITY           SKY/WX    TMP DP  RH WIND       PRES   REMARKS
FLAG ISLAND    MIX PCPN  34  32  93 E3        29.78R
WARROAD        LGT SNOW  34  28  80 NE7       29.76S VSB 3/4
ROSEAU         LGT SNOW  34  28  80 E5        29.75S VSB 1
HALLOCK        DRIZZLE   37  36  93 E6        29.74R
THF RVR FALLS  CLOUDY    34  30  86 E7        29.73R
6HR MIN TEMP:  34; 6HR MAX TEMP:  37; 6HR PCP:  0.16;

HALSTAD          N/A     44  41  88 E10         N/A
FOSSTON        CLOUDY    34  34 100 CALM      29.71R
BAUDETTE       SNOW      32  32 100 E5        29.76S VSB 1/2
6HR MIN TEMP:  32; 6HR MAX TEMP:  39; 6HR PCP:  0.42;

WASKISH        LGT SNOW  34  32  93 NE3       29.74S
CROOKSTON      CLOUDY    39  37  93 E10       29.71F
$$
  *****  WEATHER ACROSS CENTRAL AND WEST MINNESOTA  *****

CITY           SKY/WX    TMP DP  RH WIND       PRES   REMARKS
BEMIDJI        LGT SNOW  32  32 100 E3        29.70S
PARK RAPIDS    CLOUDY    34  34 100 CALM      29.70S
6HR MIN TEMP:  32; 6HR MAX TEMP:  37; 6HR PCP:  0.37;

WADENA         CLOUDY    39  37  93 CALM      29.69F
DETROIT LAKES  CLOUDY    39  37  93 CALM      29.71S
MOORHEAD       PTSUNNY   48  46  93 SW3       29.71R
FERGUS FALLS   PTSUNNY   46  43  87 S7        29.65F
ELBOW LAKE     MOCLDY    46  42  83 SW5       29.68F
6HR MIN TEMP:  39; 6HR MAX TEMP:  49; 6HR PCP:  0.01;

MORRIS MN      CLOUDY    48  43  81 NW9       29.71R
STAPLES        CLOUDY    37  36  93 CALM      29.70F
WHEATON        PTSUNNY   52  45  76 CALM      29.71F
$$
  *****  WEATHER ELSEWHERE ACROSS MINNESOTA  *****

CITY           SKY/WX    TMP DP  RH WIND       PRES   REMARKS
DULUTH         LGT SNOW  33  30  88 E18G26    29.70F VSB 1   WCI  22
6HR MIN TEMP:  33; 6HR MAX TEMP:  33; 6HR PCP:  0.28;

INTRNTL FALLS  SNOW      33  31  92 E9        29.76R VSB 1/4
6HR MIN TEMP:  33; 6HR MAX TEMP:  38; 6HR PCP:  0.23;

ELY            LGT SNOW  34  30  86 E15       29.74F WCI  24
CLOQUET        LGT SNOW  34  32  93 E12       29.68F
BRAINERD       LGT RAIN  39  33  79 CALM      29.71R
6HR MIN TEMP:  37; 6HR MAX TEMP:  42; 6HR PCP:  0.07;

HIBBING        LGT SNOW  34  32  92 E9        29.72R FOG
6HR MIN TEMP:  34; 6HR MAX TEMP:  38; 6HR PCP:  0.31;

ALEXANDRIA     CLOUDY    46  40  79 CALM      29.70S
6HR MIN TEMP:  38; 6HR MAX TEMP:  48; 6HR PCP:  0.12;

SAINT CLOUD    CLOUDY    44  38  79 W8        29.70R
6HR MIN TEMP:  41; 6HR MAX TEMP:  45; 6HR PCP:  0.10;

MINNEAPOLIS    CLOUDY    45  41  86 W10       29.69S
6HR MIN TEMP:  41; 6HR MAX TEMP:  45; 6HR PCP:  0.04;

$$

  *****  WEATHER ACROSS SOUTH DAKOTA  *****

CITY           SKY/WX    TMP DP  RH WIND       PRES   REMARKS
SIOUX FALLS    MOSUNNY   64  30  27 NW20G26   29.70R
6HR MIN TEMP:  56; 6HR MAX TEMP:  65;

BROOKINGS      NOT AVBL
WATERTOWN      MOSUNNY   54  41  61 NE6       29.68R
6HR MIN TEMP:  50; 6HR MAX TEMP:  62; 6HR PCP: TRACE;

HURON          SUNNY     65  17  15 NW25G31   29.69S
6HR MIN TEMP:  63; 6HR MAX TEMP:  70;

SISSETON         N/A     50  43  77 E7        29.69R
ABERDEEN       SUNNY     62  20  19 NW21      29.68R
6HR MIN TEMP:  60; 6HR MAX TEMP:  67;

MITCHELL       SUNNY     67  20  16 NW22G32   29.71R
PIERRE         SUNNY     63  21  20 NW20      29.72S
6HR MIN TEMP:  62; 6HR MAX TEMP:  67;

MOBRIDGE       MOSUNNY   62  17  17 NW15G28   29.68S
RAPID CITY     PTSUNNY   58  29  33 NE6       29.77R
6HR MIN TEMP:  57; 6HR MAX TEMP:  66;

$$

  *****  SOME WEATHER IN NEARBY STATES *****

CITY           SKY/WX    TMP DP  RH WIND       PRES   REMARKS
GLASGOW MT     PTSUNNY   59  21  23 W16       29.68S
6HR MIN TEMP:  53; 6HR MAX TEMP:  63;

GREAT FALLS MT CLOUDY    53  34  48 NW9       29.73R
6HR MIN TEMP:  48; 6HR MAX TEMP:  57; 6HR PCP: TRACE;

CHEYENNE WY    CLOUDY    58  19  22 W15G22    29.89R
6HR MIN TEMP:  51; 6HR MAX TEMP:  62;

SCOTTSBLUFF NE PTSUNNY   66  20  17 W18       29.81S
6HR MIN TEMP:  61; 6HR MAX TEMP:  68;

OMAHA NE       CLOUDY    63  44  50 N5        29.74S
6HR MIN TEMP:  57; 6HR MAX TEMP:  64;

DES MOINES IA  CLOUDY    54  46  74 N6        29.71R
6HR MIN TEMP:  53; 6HR MAX TEMP:  56; 6HR PCP:  0.01;

DAVENPORT IA   LGT RAIN  54  52  93 NW7       29.66S FOG
6HR MIN TEMP:  55; 6HR MAX TEMP:  62; 6HR PCP:  0.15;

CHICAGO IL     CLOUDY    61  28  28 SE17      29.71F
6HR MIN TEMP:  61; 6HR MAX TEMP:  64;

EAU CLAIRE WI  CLOUDY    43  42  97 CALM      29.66F FOG
6HR MIN TEMP:  43; 6HR MAX TEMP:  44; 6HR PCP:  0.26;

LA CROSSE WI   CLOUDY    46  45  96 NW3       29.67S FOG
6HR MIN TEMP:  44; 6HR MAX TEMP:  48; 6HR PCP:  0.16;

$$

  *****  SOME NATIONAL WEATHER *****

CITY           SKY/WX    TMP DP  RH WIND       PRES   REMARKS



USA.gov is the U.S. government's official web portal to all federal, state and local government web resources and services.